This demonstration page uses our WeatherBlox Daily Observations layout. Learn more.

Left ArrowRight Arrow

Hourly Observations for June 14, 2019

Temp ( °F °C ) Dew Point ( °F °C ) Humidity (%) Winds ( mph kmh ) Pressure ( in mb ) Visibility ( mi km ) Precip ( " mm )
12:56 am 00:56 Mostly Cloudy 70 21 48 9 46 46 S 13 20 29.89 1012 10 16 0.00 0.00
1:56 am 01:56 Mostly Cloudy 70 21 48 9 46 46 S 7 11 29.87 1012 10 16 0.00 0.00
2:56 am 02:56 Mostly Cloudy 68 20 48 9 49 49 S 8 13 29.85 1011 10 16 0.00 0.00
3:56 am 03:56 Cloudy 68 20 46 8 46 46 S 10 17 29.83 1010 10 16 0.00 0.00
4:56 am 04:56 Cloudy 68 20 48 9 49 49 SSW 12 19 29.85 1011 10 16 0.00 0.00
5:11 am 05:11 Cloudy with Light Rain 66 19 50 10 56 56 S 10 17 29.85 1011 6 10 0.00 0.00
5:56 am 05:56 Cloudy with Light Rain 64 18 52 11 64 64 S 16 26 29.83 1010 6 10 0.00 0.00
6:56 am 06:56 Cloudy with Light Rain 63 17 52 11 68 68 S 15 24 29.80 1009 6 10 0.00 0.00
7:56 am 07:56 Cloudy with Light Rain 61 16 55 13 83 83 S 15 24 29.85 1011 6 10 0.00 0.00
8:56 am 08:56 Cloudy with Light Rain 61 16 55 13 83 83 S 10 17 29.83 1010 6 10 0.00 0.00
9:56 am 09:56 Cloudy 63 17 55 13 77 77 S 14 22 29.80 1009 7 11 0.02 0.51
10:56 am 10:56 Partly Cloudy 66 19 57 14 73 73 S 17 28 29.76 1008 7 11 0.00 0.00
11:44 am 11:44 Mostly Sunny 70 21 57 14 64 64 S 16 26 29.74 1007 7 11 0.00 0.00
11:56 am 11:56 Mostly Sunny 72 22 57 14 61 61 S 22 35 29.73 1007 7 11 0.00 0.00
12:56 pm 12:56 Mostly Cloudy 75 24 57 14 54 54 SSW 20 31 29.70 1006 7 11 0.00 0.00
1:56 pm 13:56 Mostly Cloudy 77 25 59 15 54 54 SSW 16 26 29.66 1005 7 11 0.00 0.00
2:56 pm 14:56 Mostly Cloudy 79 26 59 15 51 51 SSW 12 19 29.64 1004 7 11 0.00 0.00
3:56 pm 15:56 undefined N/A N/A N/A SW 13 20 N/A N/A 0.00 0.00
4:56 pm 16:56 Mostly Sunny 84 29 61 16 45 45 SW 9 15 29.62 1003 7 11 0.00 0.00
5:56 pm 17:56 Mostly Sunny 84 29 61 16 45 45 VRB 7 11 29.61 1003 7 11 0.00 0.00
6:56 pm 18:56 Mostly Sunny 81 27 63 17 54 54 SSW 16 26 29.60 1002 7 11 0.00 0.00
7:56 pm 19:56 Sunny 82 28 63 17 51 51 SSW 8 13 29.61 1003 2 3 0.00 0.00
8:56 pm 20:56 Sunny 81 27 64 18 58 58 SSE 7 11 29.60 1003 7 11 0.00 0.00
9:56 pm 21:56 Clear 77 25 64 18 65 65 S 7 11 29.61 1003 7 11 0.00 0.00
10:56 pm 22:56 Mostly Clear 77 25 64 18 65 65 SSE 6 9 29.62 1003 10 16 0.00 0.00
11:56 pm 23:56 Partly Cloudy 77 25 64 18 65 65 S 8 13 29.61 1003 10 16 0.00 0.00

Powered by AerisWeather